| time (UTC) | temp C | wind direction | speed KPH | gust KPH | rain 1hr cm | rain 24hr cm | rain mn cm | humidity % | barometer mb |
| 20260507130036 | 12 | 0 | 0.0 | 3.2 | 0.00 | 0.00 | 0.00 | 90 | 1015.9 |
| 20260507124543 | 12 | 117 | 0.0 | 3.2 | 0.00 | 0.00 | 0.00 | 90 | 1015.8 |
| 20260507123042 | 12 | 0 | 0.0 | 3.2 | 0.00 | 0.00 | 0.00 | 90 | 1015.7 |
| 20260507121542 | 12 | 140 | 0.0 | 3.2 | 0.00 | 0.00 | 0.00 | 90 | 1015.8 |
| 20260507120053 | 13 | 0 | 0.0 | 3.2 | 0.00 | 0.00 | 0.00 | 90 | 1015.8 |
| 20260507114544 | 13 | 112 | 1.6 | 3.2 | 0.00 | 0.00 | 0.00 | 90 | 1015.8 |
| 20260507113047 | 13 | 0 | 0.0 | 0.0 | 0.00 | 0.00 | 0.00 | 90 | 1015.9 |
| 20260507111539 | 13 | 0 | 0.0 | 0.0 | 0.00 | 0.00 | 0.00 | 90 | 1016.0 |
| 20260507110038 | 13 | 0 | 0.0 | 1.6 | 0.00 | 0.00 | 0.00 | 90 | 1015.8 |
| 20260507104547 | 13 | 105 | 0.0 | 1.6 | 0.00 | 0.00 | 0.00 | 90 | 1016.0 |
| 20260507103036 | 13 | 0 | 0.0 | 1.6 | 0.00 | 0.00 | 0.00 | 90 | 1016.1 |
| 20260507101542 | 13 | 90 | 0.0 | 3.2 | 0.00 | 0.00 | 0.00 | 91 | 1016.1 |
| 20260507100042 | 13 | 0 | 0.0 | 0.0 | 0.00 | 0.00 | 0.00 | 90 | 1016.1 |
| 20260507094539 | 13 | 0 | 0.0 | 1.6 | 0.00 | 0.00 | 0.00 | 90 | 1016.2 |
| 20260507093036 | 13 | 0 | 0.0 | 3.2 | 0.00 | 0.00 | 0.00 | 90 | 1016.3 |
| 20260507091536 | 13 | 352 | 1.6 | 3.2 | 0.00 | 0.00 | 0.00 | 89 | 1016.4 |
| 20260507090045 | 14 | 0 | 0.0 | 0.0 | 0.00 | 0.00 | 0.00 | 89 | 1016.5 |
| 20260507084539 | 14 | 0 | 0.0 | 1.6 | 0.00 | 0.00 | 0.00 | 89 | 1016.6 |
| 20260507083039 | 15 | 0 | 0.0 | 0.0 | 0.00 | 0.00 | 0.00 | 89 | 1016.8 |
| 20260507081543 | 15 | 0 | 0.0 | 1.6 | 0.00 | 0.00 | 0.00 | 89 | 1017.0 |
| 20260507080043 | 15 | 0 | 0.0 | 0.0 | 0.00 | 0.00 | 0.00 | 89 | 1017.2 |
| 20260507074541 | 15 | 0 | 0.0 | 3.2 | 0.00 | 0.00 | 0.00 | 89 | 1017.1 |
| 20260507073046 | 15 | 0 | 0.0 | 3.2 | 0.00 | 0.00 | 0.00 | 88 | 1017.1 |
| 20260507071539 | 15 | 0 | 0.0 | 1.6 | 0.00 | 0.00 | 0.00 | 88 | 1017.0 |
| 20260507070040 | 15 | 0 | 0.0 | 0.0 | 0.00 | 0.00 | 0.00 | 88 | 1017.2 |
| 20260507064542 | 15 | 0 | 0.0 | 3.2 | 0.00 | 0.00 | 0.00 | 88 | 1017.5 |
| 20260507063046 | 15 | 0 | 0.0 | 3.2 | 0.00 | 0.00 | 0.00 | 87 | 1017.4 |
| 20260507061541 | 16 | 0 | 1.6 | 4.8 | 0.00 | 0.00 | 0.00 | 87 | 1017.4 |
| 20260507060039 | 16 | 0 | 0.0 | 3.2 | 0.00 | 0.00 | 0.00 | 86 | 1017.4 |
| 20260507054539 | 16 | 0 | 0.0 | 4.8 | 0.00 | 0.00 | 0.00 | 86 | 1017.4 |
| 20260507053045 | 16 | 296 | 0.0 | 4.8 | 0.00 | 0.00 | 0.00 | 86 | 1017.6 |
| 20260507051540 | 16 | 293 | 1.6 | 6.4 | 0.00 | 0.00 | 0.00 | 86 | 1017.5 |
| 20260507050036 | 16 | 306 | 3.2 | 8.0 | 0.00 | 0.00 | 0.00 | 86 | 1017.4 |
| 20260507044543 | 16 | 299 | 3.2 | 6.4 | 0.00 | 0.00 | 0.00 | 85 | 1017.4 |
| 20260507043041 | 16 | 289 | 1.6 | 11.3 | 0.00 | 0.00 | 0.00 | 85 | 1017.3 |
| 20260507041543 | 16 | 314 | 3.2 | 11.3 | 0.00 | 0.00 | 0.00 | 85 | 1017.4 |
| 20260507040042 | 16 | 360 | 4.8 | 11.3 | 0.00 | 0.00 | 0.00 | 85 | 1017.2 |
| 20260507034544 | 16 | 294 | 4.8 | 12.9 | 0.00 | 0.00 | 0.00 | 85 | 1017.0 |
| 20260507033049 | 16 | 313 | 6.4 | 12.9 | 0.00 | 0.00 | 0.00 | 85 | 1016.9 |
| 20260507031539 | 16 | 311 | 6.4 | 17.7 | 0.00 | 0.00 | 0.00 | 84 | 1016.7 |
| 20260507030037 | 16 | 306 | 8.0 | 16.1 | 0.00 | 0.00 | 0.00 | 83 | 1016.6 |
| 20260507024543 | 17 | 302 | 9.7 | 17.7 | 0.00 | 0.00 | 0.00 | 82 | 1016.6 |
| 20260507023040 | 17 | 290 | 9.7 | 19.3 | 0.00 | 0.00 | 0.00 | 81 | 1016.3 |
| 20260507021536 | 17 | 287 | 9.7 | 17.7 | 0.00 | 0.00 | 0.00 | 78 | 1016.3 |
| 20260507020039 | 17 | 306 | 11.3 | 17.7 | 0.00 | 0.00 | 0.00 | 77 | 1016.3 |
| 20260507014543 | 18 | 331 | 9.7 | 19.3 | 0.00 | 0.00 | 0.00 | 74 | 1016.2 |
| 20260507013041 | 18 | 301 | 9.7 | 19.3 | 0.00 | 0.00 | 0.00 | 74 | 1016.2 |
| 20260507011540 | 18 | 296 | 9.7 | 20.9 | 0.00 | 0.00 | 0.00 | 75 | 1016.1 |
| 20260507010039 | 18 | 294 | 12.9 | 20.9 | 0.00 | 0.00 | 0.00 | 75 | 1016.1 |
| 20260507004535 | 18 | 285 | 12.9 | 22.5 | 0.00 | 0.00 | 0.00 | 75 | 1016.1 |
| 20260507003038 | 18 | 281 | 12.9 | 22.5 | 0.00 | 0.00 | 0.00 | 74 | 1016.0 |
| 20260507001603 | 18 | 263 | 12.9 | 24.1 | 0.00 | 0.00 | 0.00 | 75 | 1016.0 |
| 20260507000038 | 18 | 277 | 14.5 | 22.5 | 0.00 | 0.00 | 0.00 | 73 | 1016.0 |
| 20260506234547 | 19 | 252 | 11.3 | 24.1 | 0.00 | 0.00 | 0.00 | 74 | 1016.0 |
| 20260506233039 | 19 | 270 | 12.9 | 25.7 | 0.00 | 0.00 | 0.00 | 72 | 1016.0 |
| 20260506231539 | 18 | 291 | 16.1 | 27.4 | 0.00 | 0.00 | 0.00 | 73 | 1016.0 |
| 20260506230036 | 18 | 284 | 14.5 | 27.4 | 0.00 | 0.00 | 0.00 | 72 | 1016.0 |
| 20260506224557 | 19 | 274 | 12.9 | 22.5 | 0.00 | 0.00 | 0.00 | 71 | 1016.2 |
| 20260506223035 | 18 | 303 | 16.1 | 25.7 | 0.00 | 0.00 | 0.00 | 72 | 1016.2 |
| 20260506221536 | 19 | 313 | 12.9 | 24.1 | 0.00 | 0.00 | 0.00 | 70 | 1016.4 |
| 20260506220048 | 18 | 266 | 14.5 | 27.4 | 0.00 | 0.00 | 0.00 | 70 | 1016.5 |
| 20260506214539 | 19 | 267 | 12.9 | 22.5 | 0.00 | 0.00 | 0.00 | 69 | 1016.6 |
| 20260506213035 | 18 | 250 | 17.7 | 27.4 | 0.00 | 0.00 | 0.00 | 71 | 1016.7 |
| 20260506211550 | 18 | 303 | 12.9 | 25.7 | 0.00 | 0.00 | 0.00 | 70 | 1016.8 |
| 20260506210043 | 18 | 288 | 16.1 | 27.4 | 0.00 | 0.00 | 0.00 | 71 | 1017.0 |
| 20260506204542 | 18 | 271 | 17.7 | 27.4 | 0.00 | 0.00 | 0.00 | 71 | 1017.0 |
| 20260506203047 | 18 | 292 | 16.1 | 27.4 | 0.00 | 0.00 | 0.00 | 69 | 1017.0 |
| 20260506201537 | 18 | 261 | 16.1 | 30.6 | 0.00 | 0.00 | 0.00 | 69 | 1017.0 |
| 20260506200038 | 18 | 324 | 12.9 | 27.4 | 0.00 | 0.00 | 0.00 | 69 | 1017.1 |
| 20260506194543 | 18 | 294 | 16.1 | 25.7 | 0.00 | 0.00 | 0.00 | 69 | 1017.3 |
| 20260506193045 | 18 | 269 | 17.7 | 25.7 | 0.00 | 0.00 | 0.00 | 69 | 1017.4 |
| 20260506191539 | 18 | 261 | 17.7 | 29.0 | 0.00 | 0.00 | 0.00 | 69 | 1017.5 |
| 20260506190037 | 18 | 258 | 14.5 | 24.1 | 0.00 | 0.00 | 0.00 | 70 | 1017.5 |
| 20260506184544 | 18 | 256 | 12.9 | 25.7 | 0.00 | 0.00 | 0.00 | 69 | 1017.7 |
| 20260506183041 | 18 | 275 | 12.9 | 20.9 | 0.00 | 0.00 | 0.00 | 69 | 1017.8 |
| 20260506181554 | 18 | 273 | 12.9 | 24.1 | 0.00 | 0.00 | 0.00 | 70 | 1018.0 |
| 20260506180037 | 18 | 249 | 12.9 | 22.5 | 0.00 | 0.00 | 0.00 | 69 | 1018.1 |
| 20260506174536 | 18 | 282 | 9.7 | 20.9 | 0.00 | 0.00 | 0.00 | 68 | 1018.1 |
| 20260506173105 | 18 | 289 | 11.3 | 19.3 | 0.00 | 0.00 | 0.00 | 68 | 1018.2 |
| 20260506171546 | 17 | 289 | 6.4 | 17.7 | 0.00 | 0.00 | 0.00 | 68 | 1018.3 |
| 20260506170044 | 18 | 306 | 9.7 | 19.3 | 0.00 | 0.00 | 0.00 | 66 | 1018.2 |
| 20260506164539 | 18 | 330 | 8.0 | 16.1 | 0.00 | 0.00 | 0.00 | 66 | 1018.2 |
| 20260506163035 | 17 | 324 | 3.2 | 12.9 | 0.00 | 0.00 | 0.00 | 69 | 1018.3 |
| 20260506161535 | 17 | 350 | 9.7 | 16.1 | 0.00 | 0.00 | 0.00 | 69 | 1018.2 |
| 20260506160052 | 17 | 0 | 0.0 | 8.0 | 0.00 | 0.00 | 0.00 | 67 | 1018.2 |
| 20260506154544 | 17 | 96 | 0.0 | 11.3 | 0.00 | 0.00 | 0.00 | 68 | 1018.3 |
| 20260506153035 | 17 | 28 | 1.6 | 9.7 | 0.00 | 0.00 | 0.00 | 69 | 1018.2 |
| 20260506151536 | 17 | 80 | 3.2 | 6.4 | 0.00 | 0.00 | 0.00 | 70 | 1018.4 |
| 20260506150038 | 16 | 0 | 1.6 | 4.8 | 0.00 | 0.00 | 0.00 | 71 | 1018.3 |
| 20260506144545 | 16 | 132 | 1.6 | 4.8 | 0.00 | 0.05 | 0.00 | 71 | 1018.2 |
| 20260506143039 | 16 | 144 | 0.0 | 3.2 | 0.00 | 0.05 | 0.00 | 74 | 1018.3 |
| 20260506141540 | 15 | 0 | 0.0 | 1.6 | 0.00 | 0.05 | 0.00 | 77 | 1018.2 |
| 20260506140037 | 14 | 94 | 1.6 | 4.8 | 0.00 | 0.05 | 0.00 | 80 | 1018.2 |
| 20260506134538 | 13 | 90 | 1.6 | 6.4 | 0.00 | 0.30 | 0.00 | 82 | 1018.1 |
| 20260506133041 | 12 | 0 | 0.0 | 3.2 | 0.00 | 0.30 | 0.00 | 83 | 1018.0 |
| 20260506131547 | 12 | 0 | 0.0 | 1.6 | 0.00 | 0.30 | 0.00 | 83 | 1017.8 |